Location: B?dimalle
(17.1788°N, 80.5377°E)
Time: 15:38:48
(UTC+00:00)

Vanguard 1 - Pass Details

Date: 21 February 2026
Orbit: 653 x 3818 km, 34.2° (Epoch: 9 March)

Event Time Altitude Azimuth Distance (km) Brightness Sun altitude
Rises 14:15:03 0° 302° (WNW) 6,249 15.0 -22.9°
Reaches altitude 10° 14:18:36 10° 304° (NW) 5,572 14.6 -23.7°
Maximum altitude 14:37:49 75° 30° (NNE) 3,777 12.7 -28.3°
Enters shadow 14:49:54 40° 106° (ESE) 4,850 13.0 -31.2°
